CZ-4C DEB, 43265

Orbit data source: Space-Track

CZ-4C DEB, 43265 is space debris in SSO originally from a launch on Sat, 31 Mar 2018 UTC launched from the Taiyaun Space Center, China (TSC). Debris objects in space refer to the collection of defunct objects orbiting the Earth. Examples of debris include non-operational satellites, rocket bodies, and fragments generated from explosions, collisions, or faulty payload assembly.

Loading next visibility...
Identifier
43265, 2018-031G
Orbit
SSO
Last TLE update
16 hours ago
Origin
Manufacturer
Unknown
Mission
Spacecraft
Bus & Motor
Unknown
Mass
Unknown
Launch date (UTC)
2018-03-31 (7 years ago)
Launch vehicle
Unknown
Launch site
Taiyaun Space Center, China (TSC)
Object type
Payload
Rocket body
Debris
Shape & HBR
Unknown
Radar Cross Section
Large (>1 m²)

Expand to show TLE details & history

TLE from 16 hours ago
0 CZ-4C DEB
1 43265U 18031G   25129.15204746  .00008744  00000-0  78409-3 0  9995
2 43265  97.8070 207.8073 0005793 134.0446 226.1253 14.95996599383883
Epoch: 2025-05-09T03:38Z
Definitive object data (Epoch: 2025-05-09T03:38:56.9Z)
Latitude
-0.00002°
Longitude
-74.14208°
Altitude
585.122 km
Speed
7.566 km/s
True Right ascension
13h 51m 13s
True Declination
0° 00' 00"
Sunlit
Object was in full shadow at TLE epoch
Visualization TLE readout
Latitude
55.97405°
Longitude
-85.11676°
Altitude
587.555 km
Speed
7.572 km/s
Apparent Right ascension
14h 48m 34s
Apparent Declination
11° 39' 34"
Sunlit
Object is in daylight
Visualization observer readout
Local Sidereal Time
04:08:17
Azimuth
24.116° NE
Elevation
-35.204°
Doppler factor
1
Orbital elements
Apogee altitude
580.325 km
Perigee altitude
572.268 km
Semi-major axis
6,954.433 km
Eccentricity
0.0005793
Inclination
97.807°
RAAN
207.8073°
Arg. of periapsis
134.0446°
True anomaly
226.07747°
Mean anomaly
226.1253°
Eccentric anomaly
226.10138°
Mean motion
3.7424 °/min
BSTAR
0.00078409
Orbital period
96.19 mins
Loading maneuver chart data...
Loading SW <> Apogee altitude chart data...
Loading historical data...
Loading historical data...
Loading historical data...
Loading historical data...
Loading historical data...
Loading historical data...
Loading historical data...

CZ-4C DEB Visibility forecast

Observer location: undefined°, undefined°

Span
Click to sort rows by Start time (UTC) header in descending order
Start Az.
Max El. time (UTC)
Max El. Az.
Max El.
End time (UTC)
End Az.
6 mins2025-05-10 05:28:14.608Z185.134° SSW2025-05-10 05:30:14.608Z230.578° WSW40.07°2025-05-10 05:34:14.608Z338.964° N
4 mins2025-05-10 17:10:14.608Z63.057° ENE2025-05-10 17:12:14.608Z99.746° ESE17.796°2025-05-10 17:14:14.608Z132.925° SE
5 mins2025-05-10 18:45:14.608Z336.688° NNW2025-05-10 18:47:14.608Z290.663° WNW27.421°2025-05-10 18:50:14.608Z231.634° WSW
|